Weather History for Central Park, NY

Change the Weather History Date:

Monday, December 23, 2013

  Actual Average Record
Temperature  
Mean Temperature 53 °F 35 °F  
Max Temperature 64 °F 41 °F 66 °F (1990)
Min Temperature 42 °F 30 °F -1 °F (1883)
Degree Days  
Heating Degree Days 12 30  
Month to date heating degree days 575 605  
Since 1 July heating degree days 1383 1438  
Cooling Degree Days 0 0  
Month to date cooling degree days 1 0  
Year to date cooling degree days 1272 1105  
Growing Degree Days 3 (Base 50)    
Moisture  
Dew Point 52 °F    
Average Humidity 80    
Maximum Humidity 93    
Minimum Humidity 67    
Precipitation  
Precipitation 0.51 in 0.13 in 1.61 in (1913)
Month to date precipitation 3.65 3.04  
Year to date precipitation 45.12 48.98  
Snow  
Snow 0.00 in 0.20 in 6.00 in (1963)
Month to date snowfall 8.6 3.1  
Since 1 July snowfall 8.6 3.4  
Snow Depth 0.00 in    
Sea Level Pressure  
Sea Level Pressure 30.00 in    
Wind  
Wind Speed 5 mph (West)    
Max Wind Speed 17 mph    
Max Gust Speed 28 mph    
Visibility 6 miles    
Events Rain    
T = Trace of Precipitation, MM = Missing Value Source: NWS Daily Summary

Daily Weather History Graph

Daily Weather History Graph

Search for Another Location

Airport:

Trip Planner

Search our weather history database for the weather conditions in past years. The results will help you decide how hot, cold, wet, or windy it might be!

Date:

Astronomy

Dec. 23, 2013 Rise Set
Actual Time 7:17 AM EST 4:32 PM EST
Civil Twilight 6:46 AM EST 5:03 PM EST
Nautical Twilight 6:12 AM EST 5:38 PM EST
Astronomical Twilight 5:38 AM EST 6:11 PM EST
Moon 10:42 PM EST (12/23) 10:39 AM EST (12/23)
Length of Visible Light 10h 17m
Length of Day
9h 14m
Waning Gibbous, 68% of the Moon is Illuminated
Dec 23
Waning Gibbous
Dec 25
Last Quarter
Jan 1
New
Jan 7
First Quarter
Jan 15
Full

Hourly Weather History & Observations

Time (EST) Temp. Windchill Dew Point Humidity Pressure Visibility Wind Dir Wind Speed Gust Speed Precip Events Conditions
12:51 AM 63.0 °F - 55.0 °F 75% 29.96 in 10.0 mi North - - N/A   Clear
1:51 AM 63.0 °F - 55.0 °F 75% 29.97 in 10.0 mi Variable 3.5 mph - N/A   Overcast
2:51 AM 63.0 °F - 55.0 °F 75% 29.97 in 10.0 mi North - - N/A   Clear
3:23 AM 63.0 °F - 55.0 °F 75% 30.00 in 10.0 mi WSW 8.1 mph - N/A   Mostly Cloudy
3:51 AM 63.0 °F - 55.0 °F 75% 29.97 in 10.0 mi West 6.9 mph - N/A   Overcast
4:51 AM 62.1 °F - 55.9 °F 80% 29.96 in 10.0 mi West 6.9 mph - N/A   Overcast
5:51 AM 61.0 °F - 57.0 °F 87% 29.97 in 5.0 mi Variable 3.5 mph - 0.02 in Rain Light Rain
6:51 AM 61.0 °F - 57.0 °F 87% 29.97 in 7.0 mi Variable 3.5 mph - 0.05 in Rain Light Rain
7:51 AM 61.0 °F - 57.0 °F 87% 29.98 in 6.0 mi WSW 4.6 mph - 0.06 in Rain Light Rain
8:01 AM 61.0 °F - 57.9 °F 90% 30.00 in 5.0 mi Variable 4.6 mph - 0.00 in Rain Light Rain
8:17 AM 61.0 °F - 57.9 °F 90% 30.01 in 1.8 mi Calm Calm - 0.03 in Rain Rain
8:31 AM 61.0 °F - 57.9 °F 90% 29.99 in 3.0 mi Variable 3.5 mph - 0.06 in Rain Light Rain
8:51 AM 61.0 °F - 57.9 °F 90% 29.96 in 5.0 mi Calm Calm - 0.07 in Rain Light Rain
9:34 AM 61.0 °F - 57.9 °F 90% 29.99 in 4.0 mi Calm Calm - 0.03 in Rain Light Rain
9:49 AM 60.8 °F - 57.2 °F 88% 30.00 in 3.0 mi Calm Calm - 0.03 in   Overcast
9:51 AM 60.1 °F - 57.9 °F 93% 29.98 in 3.0 mi Variable 3.5 mph - 0.03 in   Overcast
10:04 AM 60.1 °F - 57.9 °F 93% 30.00 in 2.5 mi North - - N/A   Overcast
10:13 AM 60.1 °F - 57.9 °F 93% 29.98 in 4.0 mi SSE 8.1 mph - N/A   Overcast
10:31 AM 60.1 °F - 57.0 °F 90% 29.98 in 4.0 mi South 6.9 mph - N/A   Overcast
10:35 AM 59.0 °F - 57.0 °F 93% 29.97 in 4.0 mi South 5.8 mph - N/A   Overcast
10:51 AM 59.0 °F - 57.0 °F 93% 29.94 in 3.0 mi Variable 3.5 mph - 0.00 in Rain Light Rain
11:19 AM 60.1 °F - 57.0 °F 90% 29.96 in 3.0 mi Variable 3.5 mph - 0.02 in Rain Light Rain
11:28 AM 60.1 °F - 57.0 °F 90% 29.94 in 2.5 mi South 10.4 mph - 0.03 in Rain Light Rain
11:46 AM 60.8 °F - 57.2 °F 88% 29.93 in 4.0 mi South 6.9 mph - 0.05 in Rain Light Rain
11:51 AM 60.1 °F - 57.0 °F 90% 29.88 in 4.0 mi Variable 4.6 mph - 0.05 in Rain Light Rain
12:24 PM 59.0 °F - 57.0 °F 93% 29.93 in 2.0 mi WNW 9.2 mph - 0.03 in Rain Light Rain
12:34 PM 59.0 °F - 55.9 °F 90% 29.94 in 3.0 mi Variable 4.6 mph - 0.04 in Rain Rain
12:43 PM 59.0 °F - 55.9 °F 90% 29.94 in 2.5 mi Variable 4.6 mph - 0.05 in Rain Light Rain
12:51 PM 57.9 °F - 55.0 °F 90% 29.92 in 2.5 mi North 16.1 mph 25.3 mph 0.05 in Rain Light Rain
12:57 PM 54.0 °F - 50.0 °F 86% 29.95 in 2.5 mi North 12.7 mph 28.8 mph 0.01 in Rain Light Rain
1:12 PM 53.1 °F - 48.9 °F 86% 29.96 in 4.0 mi NW 5.8 mph - 0.02 in Rain Light Rain
1:51 PM - - - N/A% 29.96 in 4.0 mi Variable 4.6 mph - 0.05 in Rain Light Rain
2:02 PM 53.1 °F - 48.0 °F 83% 29.97 in 7.0 mi Variable 6.9 mph - 0.00 in Rain Light Rain
2:51 PM 52.0 °F - 48.9 °F 89% 29.96 in 2.5 mi Calm Calm - 0.04 in Rain Rain
3:04 PM 52.0 °F - 50.0 °F 93% 29.98 in 3.0 mi Calm Calm - 0.02 in Rain Light Rain
3:51 PM 52.0 °F - 48.9 °F 89% 30.00 in 5.0 mi Calm Calm - 0.03 in Rain Light Rain
4:51 PM 52.0 °F - 48.9 °F 89% 30.02 in 10.0 mi NW 5.8 mph - 0.05 in   Overcast
5:51 PM 52.0 °F - 48.9 °F 89% 30.04 in 10.0 mi WNW 3.5 mph - 0.00 in   Overcast
6:51 PM 52.0 °F - 48.9 °F 89% 30.06 in 10.0 mi WNW 4.6 mph - 0.01 in   Overcast
7:51 PM 52.0 °F - 48.9 °F 89% 30.04 in 10.0 mi Variable 4.6 mph - N/A   Overcast
8:11 PM 46.9 °F - 41.0 °F 80% 30.13 in 10.0 mi NW 13.8 mph 25.3 mph 0.00 in Rain Light Rain
8:21 PM 46.0 °F 42.5 °F 39.9 °F 79% 30.11 in 10.0 mi Variable 6.9 mph 21.9 mph 0.00 in Rain Light Rain
8:51 PM 46.0 °F 44.8 °F 37.9 °F 73% 30.12 in 10.0 mi Variable 3.5 mph 20.7 mph 0.00 in Rain Light Rain
9:51 PM 44.1 °F 42.5 °F 35.1 °F 71% 30.11 in 10.0 mi Variable 3.5 mph - 0.00 in   Overcast
10:08 PM 44.1 °F 39.0 °F 34.0 °F 68% 30.14 in 10.0 mi North 9.2 mph 23.0 mph N/A   Overcast
10:51 PM 43.0 °F 38.2 °F 32.0 °F 65% 30.13 in 10.0 mi North 8.1 mph 21.9 mph N/A   Overcast
11:51 PM 42.1 °F 37.7 °F 28.9 °F 60% 30.16 in 10.0 mi WNW 6.9 mph 17.3 mph N/A   Scattered Clouds